Overview Statistics Trail Chart Weather Telemetry Raw packets
 

This is the latest recevied weather packets stored in our database for station/object OK1TBM-13. If no packets are shown the sender has not sent any weather packets the latest 10 day(s).

<< 32 33 34 35 36 37 38 >>
Time Temp. Humidity Pressure Rain* Wind** Luminosity Snow
1788370501 20.56° C 66% 1017.6 hPa 0 mm - 4 W/m² -
1788369902 21.11° C 65% 1017.6 hPa 0 mm - 10 W/m² -
1788369602 21.67° C 59% 1017.6 hPa 0 mm - 14 W/m² -
1788369301 21.67° C 58% 1017.6 hPa 0 mm - 17 W/m² -
1788369005 22.22° C 56% 1017.3 hPa 0 mm - 23 W/m² -
1788368702 22.22° C 53% 1017.3 hPa 0 mm - 28 W/m² -
1788368401 22.78° C 52% 1017.3 hPa 0 mm - 33 W/m² -
1788367802 22.78° C 51% 1017.3 hPa 0 mm - 42 W/m² -
1788367502 23.33° C 52% 1017.3 hPa 0 mm - 48 W/m² -
1788367202 23.33° C 50% 1017.3 hPa 0 mm - 57 W/m² -
1788366901 23.89° C 49% 1017.3 hPa 0 mm - 64 W/m² -
1788366601 24.44° C 48% 1017.3 hPa 0 mm - 96 W/m² -
1788366302 25° C 47% 1017.3 hPa 0 mm - 118 W/m² -
1788366002 24.44° C 48% 1017.3 hPa 0 mm - 81 W/m² -
1788365702 24.44° C 48% 1017.3 hPa 0 mm - 118 W/m² -
1788365401 24.44° C 47% 1017.3 hPa 0 mm - 86 W/m² -
1788365102 24.44° C 47% 1017.3 hPa 0 mm - 124 W/m² -
1788364200 25° C 46% 1017.6 hPa 0 mm - 180 W/m² -
1788363900 24.44° C 47% 1017.6 hPa 0 mm - 200 W/m² -
1788363308 25° C 46% 1018 hPa 0 mm - 230 W/m² -
1788363001 24.44° C 47% 1018 hPa 0 mm - 220 W/m² -
1788362701 24.44° C 47% 1018 hPa 0 mm - 225 W/m² -
1788362400 24.44° C 47% 1018 hPa 0 mm - 140 W/m² -
1788362101 25° C 47% 1018 hPa 0 mm - 267 W/m² -
1788361801 25° C 48% 1018 hPa 0 mm - 350 W/m² -

* Rain latest hour (hover to see other rain measurements)
** Current wind speed in m/s (hover to see current wind gust speed)